Regional Weather Roundup
Issued by NWS

Home | Current Version | Previous Version | Graphics & Text | Print | Product List | Glossary On
Versions: 1 2 3 4 5 6 7 8 9 10 11 12 13 14 15 16 17 18 19 20 21 22 23 24 25 26 27 28 29 30 31 32 33 34 35 36 37 38 39 40 41 42 43 44 45 46 47 48 49 50
000
ASUS43 KIND 040659
RWRIN

WEATHER ROUNDUP FOR INDIANA
NATIONAL WEATHER SERVICE INDIANAPOLIS IN
200 AM EST SUN DEC 04 2016

NOTE: "FAIR" INDICATES FEW OR NO CLOUDS BELOW 12,000 FEET WITH NO
SIGNIFICANT WEATHER AND/OR OBSTRUCTIONS TO VISIBILITY.

* - STATION DOES NOT REPORT WEATHER SUCH AS PRECIPITATION OR FOG.

+ - STATION NOT QUALITY CONTROLLED BY THE NATIONAL WEATHER SERVICE.
    USE DATA WITH CAUTION...ESPECIALLY DEWPOINT AND RELATIVE
    HUMIDITY OBSERVATIONS.

INZ001>003-010>013-019-020-040800-
NORTHWEST INDIANA

CITY           SKY/WX    TMP DP  RH WIND       PRES   REMARKS
GARY /AIRPORT/ CLOUDY    32  28  85 CALM      30.27F
LA PORTE +     CLOUDY    33  33 100 CALM      30.27F

$$

LMZ046-743>745-040800-
SOUTHERN LAKE MICHIGAN

STATION/POSITION TIME  TEMP    WIND        PRES    WAVE
                       AIR SEA DIR/SP/G            HT
                 (UTC) (F)     (DEG/KT/KT) (MB)    (FT)
BURNS HARBOR     0640   33     200/  8/ 11 1025.4S
MICHIGAN CITY    0630   32     160/  6/  7   N/A

$$

INZ004-005-014>016-021>024-040800-
NORTH CENTRAL INDIANA

CITY           SKY/WX    TMP DP  RH WIND       PRES   REMARKS
GOSHEN         CLOUDY    32  25  75 CALM      30.26F
SOUTH BEND     CLOUDY    32  25  75 CALM      30.27S
WARSAW +       CLOUDY    30  27  86 CALM      30.25F

$$

INZ006>009-017-018-025>027-040800-
NORTHEAST INDIANA

CITY           SKY/WX    TMP DP  RH WIND       PRES   REMARKS
ANGOLA *+      CLOUDY    34  28  80 SW3       30.25F
FORT WAYNE     CLOUDY    32  28  85 SE3       30.27S
KENDALLVILLE + CLOUDY    32  28  85 CALM      30.26F

$$

INZ028-029-035-036-043>045-051>053-040800-
WEST CENTRAL INDIANA

CITY           SKY/WX    TMP DP  RH WIND       PRES   REMARKS
CRAWFORDSVL +  MOCLDY    30  30 100 CALM      30.25F
GREENCASTLE +  CLOUDY    32  32 100 CALM      30.25F
LAFAYETTE      CLOUDY    33  29  85 CALM      30.26F
TERRE HAUTE    CLOUDY    34  29  82 E5        30.25F WCI  30

$$

INZ030>032-037>040-046>048-054>057-064-065-040800-
CENTRAL INDIANA

CITY           SKY/WX    TMP DP  RH WIND       PRES   REMARKS
FRANKFORT +    CLOUDY    34  32  92 CALM      30.26F
GREENWOOD *+   CLOUDY    34  29  83 CALM      30.26S
INDIANAPOLIS   CLOUDY    34  28  79 NE3       30.25S
-EAGLE CREEK   CLOUDY    34  28  79 CALM      30.25F
KOKOMO +       CLOUDY    31  29  92 NE3       30.27F
SHELBYVILLE    CLOUDY    33  28  81 CALM      30.25S
ZIONSVILLE +   CLOUDY    31  29  94 CALM      30.26S

$$

INZ033-034-041-042-049-050-058-059-040800-
EAST CENTRAL INDIANA

CITY           SKY/WX    TMP DP  RH WIND       PRES   REMARKS
MUNCIE         CLOUDY    33  29  85 CALM      30.26S

$$

INZ060-061-067>069-081>083-085>088-040800-
SOUTHWEST INDIANA

CITY           SKY/WX    TMP DP  RH WIND       PRES   REMARKS
EVANSVILLE     CLOUDY    40  31  70 NE6       30.22F
HUNTINGBURG *+ CLOUDY    39  30  70 E5        30.23F

$$

INZ062-063-066-070>080-084-089>092-040800-
SOUTH CENTRAL AND SOUTHEAST INDIANA

CITY           SKY/WX    TMP DP  RH WIND       PRES   REMARKS
BLOOMINGTON    CLOUDY    35  28  75 N5        30.24F WCI  31
MADISON *+     CLOUDY    36  30  80 E3        30.27R
SEYMOUR +      CLOUDY    37  32  81 CALM      30.26S

$$




USA.gov is the U.S. government's official web portal to all federal, state and local government web resources and services.